STARLINK-4443, 53508

Orbit data source: Space-Track

STARLINK-4443, 53508 is a payload satellite owned by SpaceX/Seattle (US) in SSO that was launched on Fri, 12 Aug 2022 UTC via an FALCON 9 launch vehicle from the Air Force Western Test Range (AFWTR). Payload-class satellites include a variety of spacecraft equipped with specific instruments for various scientific and technological missions. These include communications satellites like Starlink; space stations such as the ISS; scientific satellites like the Hubble; Earth observation satellites from companies like Planet Labs, Umbra, and HawkEye 360; GPS; miniature CubeSats for education and research; and military/defense satellites.

Loading next visibility...
Identifier
53508, 2022-099AV
Orbit
SSO
Country
Flag of USUS
Related business
Manufacturer
SpaceX/Seattle
Mission
Operational Commercial Communications
Bus & Motor
STARLINK, Unknown motor
Mass
300 kg wet, ~275 kg dry
Launch date (UTC)
2022-08-12 (3 years ago)
Launch vehicle
FALCON 9
Launch site
Air Force Western Test Range (AFWTR)
Object type
Payload
Rocket body
Debris
Shape & HBR
Box + 1 Pan, 10.1 m
Radar Cross Section
13.562 m², Large (>1 m²)

Expand to show TLE details & history
Last TLE update: 6 hours ago

TLE from 6 hours ago
0 STARLINK-4443
1 53508U 22099AV  25293.59186689  .00000960  00000-0  70751-4 0  9995
2 53508  97.6055  53.1418 0001470  95.4902 264.6493 15.05647563174972
Epoch: 2025-10-20T14:12Z
TLE epoch observation values (Epoch: 2025-10-20T14:12:17.299Z)
Latitude
0.00004°
Longitude
170.77774°
Altitude
552.679 km
Speed
7.585 km/s
True Right ascension
03h 32m 34s
True Declination
0° 00' 00"
Sunlit
Object was in full shadow at epoch
Visualization orbit readout
Latitude
Unknown
Longitude
Unknown
Altitude
Unknown
Speed
Unknown
Apparent Right ascension
Unknown
Apparent Declination
Unknown
Sunlit
N/A
Visualization observer readout
Local Sidereal Time
15:08:22
Azimuth
Unknown
Elevation
Unknown
Doppler factor
Unknown
Orbital elements
Apogee altitude
547.53 km
Perigee altitude
545.494 km
Semi-major axis
6,924.649 km
Eccentricity
0.00015
Inclination
97.6055°
RAAN
53.1418°
Arg. of periapsis
95.4902°
True anomaly
264.63253°
Mean anomaly
264.6493°
Eccentric anomaly
264.64091°
Mean motion
3.76657 °/min
Orbital period
95.58 mins
BSTAR
0.000070751
Loading maneuver chart data...
Computing Atmospheric mass density...
Loading historical data...
Loading historical data...
Loading historical data...
Loading historical data...
Loading historical data...
Loading historical data...
Loading historical data...

Documentation

Showing up to 5 results
|